SCP
0 0 0 0 0 0 0 0 0 -0 0 -0 0 0 -0 0 0 0 0 0 0 0 0 0 0 0 0 1 1 0 0 1 0 0 0 0 0 0 0 0 0 0 0 0
0 0 0 0 0 0 0 0 0 0 0 0 -0 0 0 -0 -0 0 0 0 0 0 0 0 0 0 0 1 1 0 0 0 1 0 0 0 0 0 0 0 0 0 0 0
0 0 0 0 0 0 0 0 0 0 0 -0 -0 -0 -0 -0 -0 0 0 0 0 0 0 0 0 0 0 1 1 1 0 0 1 0 0 1 0 0 0 0 0 0 0 0
0 0 0 0 0 0 0 0 0 0 0 -0 0 -0 -0 -0 0 0 0 0 0 0 0 0 0 0 0 0 1 1 1 0 0 2 0 1 1 0 0 0 0 0 0 0
0 0 0 0 0 0 0 0 0 0 0 0 -0 0 -0 -0 -0 0 0 0 0 0 0 0 0 0 0 0 0 1 1 1 1 1 1 1 1 1 0 0 0 0 0 0
0 0 0 0 0 0 -0 0 0 0 0 0 0 -0 -0 0 0 0 0 0 0 0 0 0 0 0 0 0 0 2 2 2 2 1 2 2 1 1 1 1 1 1 0 0
0 0 0 0 0 0 0 0 0 0 0 0 0 -0 0 0 0 -0 0 0 0 0 0 0 0 0 0 0 0 5 2 4 4 4 1 2 2 1 2 2 2 2 1 0
0 0 0 0 0 0 0 0 0 0 0 0 0 -0 -0 -0 0 0 0 0 -0 0 0 0 0 0 0 0 0 0 4 3 4 5 4 2 2 3 2 3 2 4 3 2
0 0 0 0 0 0 0 0 0 0 0 0 0 0 0 -0 -0 0 0 0 0 0 0 0 0 0 0 0 0 0 2 4 4 4 4 4 3 4 4 3 3 2 4 4
0 0 0 0 0 0 0 0 0 0 0 0 -0 0 0 -0 -0 0 0 0 0 0 0 0 0 0 0 0 -0 0 0 3 6 5 6 5 4 3 3 5 3 4 5 5
0 0 0 0 0 0 0 0 0 0 -0 -0 -0 0 -0 0 -0 0 0 0 0 0 0 0 0 0 0 0 0 0 0 0 2 6 5 5 6 5 4 4 5 5 5 5
0 0 0 0 0 0 0 0 0 0 0 -0 0 0 -0 -0 -0 0 0 0 0 0 0 0 0 0 0 0 0 0 0 0 0 1 4 7 7 8 6 5 4 4 4 5
0 0 0 0 0 0 0 0 0 0 0 0 0 0 -0 -0 -0 0 0 -0 0 0 0 0 0 0 0 0 0 0 0 0 0 0 2 3 7 8 6 6 4 2 3 5
0 0 0 0 0 0 0 0 0 0 0 0 0 -0 -0 -0 0 -0 -0 -0 0 0 0 0 0 0 0 0 0 0 0 0 0 0 0 2 2 4 7 6 2 1 1 0
0 0 0 0 0 -0 0 0 0 0 0 0 0 0 -0 -0 0 -0 0 -0 0 0 0 0 0 0 0 0 0 0 0 0 0 0 0 0 0 1 3 1 0 0 0 0
0 0 0 0 0 0 0 0 0 -0 0 0 0 0 0 0 -0 -0 -0 0 0 0 0 0 -0 -0 0 0 0 0 0 0 0 0 0 0 0 1 1 0 0 0 0 0
0 0 0 0 0 0 0 0 -0 0 0 0 0 0 -0 0 0 -0 -0 -0 0 0 0 0 0 -0 0 0 0 0 0 0 0 0 0 0 1 0 1 1 0 0 0 0
0 0 0 0 0 0 0 0 -0 0 0 0 0 0 0 0 0 -0 0 -0 -0 0 0 0 0 0 0 -0 0 0 0 0 -0 0 -0 0 1 1 1 1 1 1 0 0
0 0 0 0 0 0 0 0 -0 0 0 0 0 0 0 0 0 0 0 -0 0 -0 0 0 0 0 0 0 0 0 0 0 -0 0 0 0 0 -1 0 1 1 0 0 0
0 0 0 0 0 0 0 0 -0 0 0 0 0 0 0 0 0 0 0 0 0 0 0 0 0 0 0 0 0 0 0 0 -0 0 0 0 0 -0 -0 1 1 0 0 0
0 0 0 0 0 0 0 0 0 0 0 0 0 0 0 0 0 0 0 0 0 0 -0 -0 0 0 0 0 0 0 0 0 0 0 0 0 1 1 1 0 0 0 0 0
0 0 0 0 0 -0 0 -0 0 0 0 0 0 0 0 0 0 0 0 0 0 0 0 0 -0 0 0 0 0 0 0 0 0 0 0 0 0 0 0 0 0 0 0 0
0 0 0 0 0 0 0 0 0 0 0 0 0 0 0 0 0 0 0 0 0 0 0 -0 -0 -0 0 0 0 0 0 0 0 0 0 0 0 0 0 0 0 0 0 0
0 0 0 0 0 0 0 0 0 0 0 0 0 0 0 0 0 0 0 -0 -0 0 0 -0 -0 -0 -0 0 0 0 0 0 0 0 0 0 0 0 0 0 0 0 0 0
0 0 0 0 0 0 0 0 0 0 0 0 0 0 0 0 0 0 0 -0 -0 -0 -0 -0 -0 -0 -0 -0 0 0 0 0 0 0 0 0 0 0 0 0 0 0 0 0
0 0 0 0 0 0 0 0 0 0 0 0 0 0 0 0 0 0 0 0 -0 -0 -0 -0 -0 -0 -0 -0 -0 0 0 0 0 0 0 0 0 0 0 0 0 0 0 0
Wind_Speed_500mb
15 12 11 19 13 16 22 20 20 22 27 15 25 28 18 28 43 34 46 56 70 70 76 70 62 62 41 47 59 90 88 91 80 67 79 75 72 65 58 62 61 69 76 76
11 7 16 17 18 16 19 21 18 18 19 14 20 31 28 15 18 28 47 60 66 73 71 79 70 60 63 49 58 72 85 91 88 77 82 81 71 69 64 62 58 60 70 81
6 17 26 26 22 17 11 11 14 11 13 10 15 21 16 15 24 36 44 54 57 66 67 78 65 62 54 48 63 73 82 90 92 87 83 84 76 70 68 70 66 63 64 72
9 17 27 21 17 11 19 14 13 17 9 10 2 26 23 19 19 20 36 46 46 45 41 13 15 12 28 34 44 67 80 90 93 92 92 94 92 81 80 78 74 69 66 67
13 29 30 8 13 17 17 26 11 10 24 3 33 6 13 12 23 27 19 37 47 55 49 47 31 18 14 9 15 53 74 88 96 98 99 100 90 85 80 85 83 77 73 71
19 31 9 4 13 16 24 13 12 9 2 3 11 10 20 22 22 28 13 42 49 50 46 47 37 37 32 26 23 19 54 90 108 111 103 106 102 91 90 89 90 87 83 81
11 10 12 9 27 21 25 11 9 11 7 10 10 12 19 17 6 25 26 42 56 63 62 58 50 38 44 43 40 35 31 61 102 110 102 107 100 91 97 93 99 100 91 91
13 20 12 18 29 12 17 5 4 10 5 19 21 8 8 20 22 35 48 51 53 67 70 69 57 49 48 49 55 56 46 51 70 92 101 106 111 99 99 100 95 98 101 99
10 12 37 32 25 10 12 4 11 8 9 8 8 11 3 37 40 42 48 60 59 57 73 65 57 56 48 48 58 63 60 62 74 86 93 97 105 104 97 98 97 97 96 94
7 19 14 16 16 10 11 10 6 0 7 7 11 5 9 34 35 35 36 45 60 74 75 71 62 52 45 18 56 46 53 71 75 83 89 94 101 99 101 100 94 92 97 96
5 6 16 16 4 17 6 7 5 6 7 4 8 3 12 19 21 30 34 51 57 69 62 73 72 44 32 31 11 27 37 49 73 85 89 96 104 108 105 97 94 89 94 102
3 6 11 21 33 6 7 6 7 6 8 9 7 6 13 20 29 37 45 57 62 60 62 63 68 56 48 29 25 28 7 18 37 62 88 94 101 104 101 94 91 89 92 97
6 4 10 17 9 1 6 19 20 11 6 11 8 7 7 28 31 46 50 61 62 72 73 57 59 60 54 40 33 26 32 15 6 31 66 93 103 108 97 92 83 86 93 89
24 8 12 11 25 24 19 21 18 9 4 13 12 28 31 36 39 44 60 60 63 61 63 59 52 55 55 44 45 27 24 29 26 16 24 69 78 100 95 80 77 78 87 93
7 9 9 26 36 36 33 7 19 9 6 8 15 24 20 35 36 50 55 58 55 62 68 60 59 60 56 50 43 34 32 32 33 34 21 6 38 58 79 73 72 78 79 91
5 7 9 30 25 17 19 8 20 21 14 6 17 19 21 42 49 47 57 47 50 64 61 62 61 72 67 60 59 46 43 37 36 47 42 33 23 36 64 71 72 78 74 79
6 4 7 12 21 18 7 4 18 21 8 9 8 18 27 31 33 41 36 39 60 62 65 68 65 62 69 69 66 58 50 49 35 40 55 47 40 38 45 66 74 75 72 79
9 4 4 10 14 5 5 5 14 22 9 12 13 21 27 35 53 55 33 49 54 70 69 67 68 63 61 67 64 58 52 48 57 44 42 40 27 42 25 48 62 64 74 81
9 5 5 5 6 12 7 1 13 10 7 11 17 22 34 48 41 22 51 65 66 63 74 67 62 57 58 64 55 50 50 50 59 56 45 45 34 28 18 40 60 68 76 86
12 10 6 5 7 8 2 11 30 10 9 25 22 21 30 44 16 17 77 72 68 60 52 54 50 54 52 46 42 45 48 51 59 54 39 40 35 34 43 27 58 62 69 74
5 2 7 5 8 10 2 21 29 3 9 43 33 38 42 18 28 61 68 70 65 62 51 43 40 34 31 30 31 36 40 46 44 29 27 37 24 40 29 35 59 73 64 74
6 4 5 1 3 12 1 2 3 10 32 31 36 40 45 52 61 54 58 68 67 65 59 44 37 27 18 17 18 20 20 13 14 19 29 23 25 27 21 34 46 57 72 72
5 10 5 14 10 5 5 4 13 19 28 29 33 44 44 55 62 51 58 68 65 67 63 48 40 33 23 8 1 8 10 5 11 19 24 29 29 21 12 17 47 77 87 90
6 7 6 4 8 8 10 5 13 15 23 29 31 35 41 46 52 55 57 70 67 67 64 54 48 45 39 24 14 7 14 5 10 18 37 32 29 32 27 29 50 68 91 95
13 4 8 9 3 2 11 13 16 15 18 22 23 29 37 38 43 50 55 57 61 67 64 52 54 51 48 37 21 20 25 12 16 27 38 44 46 42 33 50 53 57 65 76
15 13 9 10 15 10 8 9 13 15 16 19 25 31 30 31 39 42 48 50 59 59 60 57 54 52 50 45 35 18 16 24 23 30 47 50 51 42 62 73 72 60 55 57
Wind_Direction_500mb
331 29 317 280 260 248 279 289 297 300 293 296 286 291 296 306 304 313 315 317 315 306 287 264 262 261 239 204 205 207 205 200 194 196 204 208 207 211 211 217 217 214 211 209
358 286 268 258 276 297 296 292 298 290 294 287 286 293 305 286 287 314 301 304 310 310 291 266 258 262 246 207 207 207 213 206 199 202 207 208 211 215 217 214 213 212 212 214
232 278 343 331 313 309 304 294 310 299 320 283 287 290 291 277 290 301 295 292 304 305 299 261 252 255 246 214 209 209 208 210 207 208 204 206 207 212 214 218 218 215 219 219
258 330 324 318 299 338 312 279 268 298 4 283 350 287 280 273 289 297 297 295 296 322 302 252 200 191 209 221 207 208 209 209 212 213 209 206 206 211 217 222 222 219 222 224
284 321 322 335 359 340 279 315 283 283 295 314 283 273 270 282 289 288 275 282 295 298 301 303 266 248 253 238 245 206 212 213 212 212 211 215 220 216 223 219 223 221 222 227
325 308 307 91 346 327 321 314 313 325 48 334 258 181 273 255 248 275 327 354 347 319 328 327 314 260 250 247 255 250 214 215 212 211 218 218 217 218 216 218 222 220 223 225
322 298 315 44 348 319 351 30 325 347 345 232 308 317 248 253 353 40 357 0 6 357 350 340 323 313 263 236 238 241 222 219 215 217 222 217 216 223 223 224 224 223 221 224
351 329 15 330 316 280 298 135 220 292 269 293 310 235 294 47 41 32 21 4 5 356 356 357 335 299 293 260 231 240 220 220 224 221 222 217 216 222 227 225 227 231 229 229
327 267 313 304 326 319 319 24 220 255 262 280 260 299 184 16 17 14 5 4 360 353 349 6 17 7 290 254 247 242 232 221 217 223 225 227 227 228 233 231 229 232 233 233
245 293 288 310 318 73 46 339 330 192 297 279 291 37 15 11 0 357 358 347 344 343 355 357 4 12 18 265 251 252 248 232 226 222 228 228 231 234 233 236 235 230 234 236
258 182 290 323 290 317 346 318 286 229 248 314 320 249 356 354 0 352 346 340 338 334 342 347 359 12 353 18 23 240 248 242 236 231 226 233 231 232 230 235 237 235 235 238
279 252 282 280 295 295 171 281 269 239 285 272 245 251 262 27 2 344 331 333 331 328 334 343 352 9 8 11 6 30 262 238 248 239 235 234 233 232 233 235 237 235 237 236
198 268 302 326 350 11 342 341 328 235 248 277 302 296 309 8 346 336 332 331 330 328 325 336 342 346 354 4 2 7 13 37 345 245 234 236 234 232 233 234 236 237 235 236
161 190 204 255 280 292 288 326 13 8 310 315 270 319 335 350 339 333 330 327 327 329 332 332 347 331 330 341 344 336 340 348 16 45 236 230 240 237 236 236 236 239 240 236
117 248 233 253 264 281 297 315 356 353 2 253 321 307 343 337 326 320 321 328 334 329 327 332 336 326 315 323 320 322 311 303 332 337 30 325 244 245 244 237 237 238 242 239
138 270 290 296 274 286 288 20 351 357 334 264 304 297 339 314 317 318 323 321 333 327 322 318 317 311 309 307 308 312 319 317 303 312 309 337 2 261 238 239 235 237 240 230
172 268 294 295 320 328 190 354 348 316 323 301 312 315 328 328 328 322 308 307 321 319 315 314 313 310 307 302 304 307 314 315 302 291 295 293 318 345 230 232 235 234 234 221
186 212 215 289 331 310 101 155 326 307 263 344 320 331 332 322 321 317 339 328 320 316 312 309 307 306 310 300 295 299 301 301 301 285 286 283 291 316 242 227 234 235 225 214
161 131 294 287 275 276 172 131 330 329 259 360 336 327 321 324 326 335 333 328 319 312 310 307 309 305 300 297 297 294 290 290 284 282 282 283 276 286 291 229 224 229 221 205
96 97 137 285 273 258 123 310 315 274 250 5 339 323 320 325 324 318 330 332 327 328 320 318 311 301 301 299 293 289 282 281 277 276 282 278 266 254 277 255 233 231 222 219
314 239 235 233 258 280 55 319 318 57 284 331 333 318 322 321 318 318 329 336 341 338 344 334 317 312 315 314 300 279 276 279 278 289 262 272 276 238 265 257 236 225 210 207
220 171 251 339 305 283 360 356 70 280 304 303 319 318 319 323 327 338 340 342 348 350 358 357 358 359 339 302 292 291 290 278 293 268 237 232 236 238 251 239 232 223 214 202
268 185 216 181 223 202 199 212 276 283 293 301 311 322 324 331 333 333 344 353 354 360 5 12 19 25 25 21 34 254 241 259 297 267 201 214 205 189 198 223 206 191 192 191
299 192 222 50 233 185 201 243 286 288 290 301 307 316 331 336 347 346 349 354 1 2 8 14 23 33 37 47 94 136 151 208 268 190 176 189 188 172 177 194 197 196 174 172
215 247 237 260 290 175 221 241 291 287 303 313 320 319 334 335 353 356 358 353 7 10 12 14 25 30 37 42 66 133 154 176 215 185 177 178 175 173 167 170 172 176 179 183
188 206 174 235 205 213 214 230 273 274 291 306 315 329 345 347 0 359 4 4 7 8 16 16 28 33 39 46 50 68 125 151 166 170 168 163 158 164 167 161 153 145 148 160
Wind_Speed_850mb
15 12 11 19 13 16 22 20 20 22 27 15 25 28 18 28 43 34 46 56 70 70 76 70 62 62 41 47 59 90 88 91 80 67 79 75 72 65 58 62 61 69 76 76
11 7 16 17 18 16 19 21 18 18 19 14 20 31 28 15 18 28 47 60 66 73 71 79 70 60 63 49 58 72 85 91 88 77 82 81 71 69 64 62 58 60 70 81
6 17 26 26 22 17 11 11 14 11 13 10 15 21 16 15 24 36 44 54 57 66 67 78 65 62 54 48 63 73 82 90 92 87 83 84 76 70 68 70 66 63 64 72
9 17 27 21 17 11 19 14 13 17 9 10 2 26 23 19 19 20 36 46 46 45 41 13 15 12 28 34 44 67 80 90 93 92 92 94 92 81 80 78 74 69 66 67
13 29 30 8 13 17 17 26 11 10 24 3 33 6 13 12 23 27 19 37 47 55 49 47 31 18 14 9 15 53 74 88 96 98 99 100 90 85 80 85 83 77 73 71
19 31 9 4 13 16 24 13 12 9 2 3 11 10 20 22 22 28 13 42 49 50 46 47 37 37 32 26 23 19 54 90 108 111 103 106 102 91 90 89 90 87 83 81
11 10 12 9 27 21 25 11 9 11 7 10 10 12 19 17 6 25 26 42 56 63 62 58 50 38 44 43 40 35 31 61 102 110 102 107 100 91 97 93 99 100 91 91
13 20 12 18 29 12 17 5 4 10 5 19 21 8 8 20 22 35 48 51 53 67 70 69 57 49 48 49 55 56 46 51 70 92 101 106 111 99 99 100 95 98 101 99
10 12 37 32 25 10 12 4 11 8 9 8 8 11 3 37 40 42 48 60 59 57 73 65 57 56 48 48 58 63 60 62 74 86 93 97 105 104 97 98 97 97 96 94
7 19 14 16 16 10 11 10 6 0 7 7 11 5 9 34 35 35 36 45 60 74 75 71 62 52 45 18 56 46 53 71 75 83 89 94 101 99 101 100 94 92 97 96
5 6 16 16 4 17 6 7 5 6 7 4 8 3 12 19 21 30 34 51 57 69 62 73 72 44 32 31 11 27 37 49 73 85 89 96 104 108 105 97 94 89 94 102
3 6 11 21 33 6 7 6 7 6 8 9 7 6 13 20 29 37 45 57 62 60 62 63 68 56 48 29 25 28 7 18 37 62 88 94 101 104 101 94 91 89 92 97
6 4 10 17 9 1 6 19 20 11 6 11 8 7 7 28 31 46 50 61 62 72 73 57 59 60 54 40 33 26 32 15 6 31 66 93 103 108 97 92 83 86 93 89
24 8 12 11 25 24 19 21 18 9 4 13 12 28 31 36 39 44 60 60 63 61 63 59 52 55 55 44 45 27 24 29 26 16 24 69 78 100 95 80 77 78 87 93
7 9 9 26 36 36 33 7 19 9 6 8 15 24 20 35 36 50 55 58 55 62 68 60 59 60 56 50 43 34 32 32 33 34 21 6 38 58 79 73 72 78 79 91
5 7 9 30 25 17 19 8 20 21 14 6 17 19 21 42 49 47 57 47 50 64 61 62 61 72 67 60 59 46 43 37 36 47 42 33 23 36 64 71 72 78 74 79
6 4 7 12 21 18 7 4 18 21 8 9 8 18 27 31 33 41 36 39 60 62 65 68 65 62 69 69 66 58 50 49 35 40 55 47 40 38 45 66 74 75 72 79
9 4 4 10 14 5 5 5 14 22 9 12 13 21 27 35 53 55 33 49 54 70 69 67 68 63 61 67 64 58 52 48 57 44 42 40 27 42 25 48 62 64 74 81
9 5 5 5 6 12 7 1 13 10 7 11 17 22 34 48 41 22 51 65 66 63 74 67 62 57 58 64 55 50 50 50 59 56 45 45 34 28 18 40 60 68 76 86
12 10 6 5 7 8 2 11 30 10 9 25 22 21 30 44 16 17 77 72 68 60 52 54 50 54 52 46 42 45 48 51 59 54 39 40 35 34 43 27 58 62 69 74
5 2 7 5 8 10 2 21 29 3 9 43 33 38 42 18 28 61 68 70 65 62 51 43 40 34 31 30 31 36 40 46 44 29 27 37 24 40 29 35 59 73 64 74
6 4 5 1 3 12 1 2 3 10 32 31 36 40 45 52 61 54 58 68 67 65 59 44 37 27 18 17 18 20 20 13 14 19 29 23 25 27 21 34 46 57 72 72
5 10 5 14 10 5 5 4 13 19 28 29 33 44 44 55 62 51 58 68 65 67 63 48 40 33 23 8 1 8 10 5 11 19 24 29 29 21 12 17 47 77 87 90
6 7 6 4 8 8 10 5 13 15 23 29 31 35 41 46 52 55 57 70 67 67 64 54 48 45 39 24 14 7 14 5 10 18 37 32 29 32 27 29 50 68 91 95
13 4 8 9 3 2 11 13 16 15 18 22 23 29 37 38 43 50 55 57 61 67 64 52 54 51 48 37 21 20 25 12 16 27 38 44 46 42 33 50 53 57 65 76
15 13 9 10 15 10 8 9 13 15 16 19 25 31 30 31 39 42 48 50 59 59 60 57 54 52 50 45 35 18 16 24 23 30 47 50 51 42 62 73 72 60 55 57
Wind_Direction_850mb
331 29 317 280 260 248 279 289 297 300 293 296 286 291 296 306 304 313 315 317 315 306 287 264 262 261 239 204 205 207 205 200 194 196 204 208 207 211 211 217 217 214 211 209
358 286 268 258 276 297 296 292 298 290 294 287 286 293 305 286 287 314 301 304 310 310 291 266 258 262 246 207 207 207 213 206 199 202 207 208 211 215 217 214 213 212 212 214
232 278 343 331 313 309 304 294 310 299 320 283 287 290 291 277 290 301 295 292 304 305 299 261 252 255 246 214 209 209 208 210 207 208 204 206 207 212 214 218 218 215 219 219
258 330 324 318 299 338 312 279 268 298 4 283 350 287 280 273 289 297 297 295 296 322 302 252 200 191 209 221 207 208 209 209 212 213 209 206 206 211 217 222 222 219 222 224
284 321 322 335 359 340 279 315 283 283 295 314 283 273 270 282 289 288 275 282 295 298 301 303 266 248 253 238 245 206 212 213 212 212 211 215 220 216 223 219 223 221 222 227
325 308 307 91 346 327 321 314 313 325 48 334 258 181 273 255 248 275 327 354 347 319 328 327 314 260 250 247 255 250 214 215 212 211 218 218 217 218 216 218 222 220 223 225
322 298 315 44 348 319 351 30 325 347 345 232 308 317 248 253 353 40 357 0 6 357 350 340 323 313 263 236 238 241 222 219 215 217 222 217 216 223 223 224 224 223 221 224
351 329 15 330 316 280 298 135 220 292 269 293 310 235 294 47 41 32 21 4 5 356 356 357 335 299 293 260 231 240 220 220 224 221 222 217 216 222 227 225 227 231 229 229
327 267 313 304 326 319 319 24 220 255 262 280 260 299 184 16 17 14 5 4 360 353 349 6 17 7 290 254 247 242 232 221 217 223 225 227 227 228 233 231 229 232 233 233
245 293 288 310 318 73 46 339 330 192 297 279 291 37 15 11 0 357 358 347 344 343 355 357 4 12 18 265 251 252 248 232 226 222 228 228 231 234 233 236 235 230 234 236
258 182 290 323 290 317 346 318 286 229 248 314 320 249 356 354 0 352 346 340 338 334 342 347 359 12 353 18 23 240 248 242 236 231 226 233 231 232 230 235 237 235 235 238
279 252 282 280 295 295 171 281 269 239 285 272 245 251 262 27 2 344 331 333 331 328 334 343 352 9 8 11 6 30 262 238 248 239 235 234 233 232 233 235 237 235 237 236
198 268 302 326 350 11 342 341 328 235 248 277 302 296 309 8 346 336 332 331 330 328 325 336 342 346 354 4 2 7 13 37 345 245 234 236 234 232 233 234 236 237 235 236
161 190 204 255 280 292 288 326 13 8 310 315 270 319 335 350 339 333 330 327 327 329 332 332 347 331 330 341 344 336 340 348 16 45 236 230 240 237 236 236 236 239 240 236
117 248 233 253 264 281 297 315 356 353 2 253 321 307 343 337 326 320 321 328 334 329 327 332 336 326 315 323 320 322 311 303 332 337 30 325 244 245 244 237 237 238 242 239
138 270 290 296 274 286 288 20 351 357 334 264 304 297 339 314 317 318 323 321 333 327 322 318 317 311 309 307 308 312 319 317 303 312 309 337 2 261 238 239 235 237 240 230
172 268 294 295 320 328 190 354 348 316 323 301 312 315 328 328 328 322 308 307 321 319 315 314 313 310 307 302 304 307 314 315 302 291 295 293 318 345 230 232 235 234 234 221
186 212 215 289 331 310 101 155 326 307 263 344 320 331 332 322 321 317 339 328 320 316 312 309 307 306 310 300 295 299 301 301 301 285 286 283 291 316 242 227 234 235 225 214
161 131 294 287 275 276 172 131 330 329 259 360 336 327 321 324 326 335 333 328 319 312 310 307 309 305 300 297 297 294 290 290 284 282 282 283 276 286 291 229 224 229 221 205
96 97 137 285 273 258 123 310 315 274 250 5 339 323 320 325 324 318 330 332 327 328 320 318 311 301 301 299 293 289 282 281 277 276 282 278 266 254 277 255 233 231 222 219
314 239 235 233 258 280 55 319 318 57 284 331 333 318 322 321 318 318 329 336 341 338 344 334 317 312 315 314 300 279 276 279 278 289 262 272 276 238 265 257 236 225 210 207
220 171 251 339 305 283 360 356 70 280 304 303 319 318 319 323 327 338 340 342 348 350 358 357 358 359 339 302 292 291 290 278 293 268 237 232 236 238 251 239 232 223 214 202
268 185 216 181 223 202 199 212 276 283 293 301 311 322 324 331 333 333 344 353 354 360 5 12 19 25 25 21 34 254 241 259 297 267 201 214 205 189 198 223 206 191 192 191
299 192 222 50 233 185 201 243 286 288 290 301 307 316 331 336 347 346 349 354 1 2 8 14 23 33 37 47 94 136 151 208 268 190 176 189 188 172 177 194 197 196 174 172
215 247 237 260 290 175 221 241 291 287 303 313 320 319 334 335 353 356 358 353 7 10 12 14 25 30 37 42 66 133 154 176 215 185 177 178 175 173 167 170 172 176 179 183
188 206 174 235 205 213 214 230 273 274 291 306 315 329 345 347 0 359 4 4 7 8 16 16 28 33 39 46 50 68 125 151 166 170 168 163 158 164 167 161 153 145 148 160